Theta_e
322 322 323 323 329 329 333 338 338 337 338 340 341 341 341 345 344 344 341 331 329 329 329 329 328 327 327 325 323 320 317 321 322 321 322 322 321 322 321 320 320 319 318 317
321 323 324 324 327 331 337 339 336 336 337 338 336 338 342 344 345 344 343 339 332 329 329 330 328 327 327 326 325 323 317 321 322 321 320 321 321 322 321 321 320 319 318 317
324 324 324 330 335 335 334 333 335 334 339 340 336 335 346 344 343 342 339 339 337 331 331 331 329 328 327 326 326 325 320 320 321 322 322 322 323 323 322 321 320 320 318 318
324 323 325 325 325 332 331 329 335 338 335 338 333 335 337 346 346 345 342 339 339 335 332 331 330 328 327 327 327 327 323 317 319 322 323 322 323 323 321 321 320 321 319 318
324 324 325 325 327 331 332 332 335 337 337 336 338 335 338 343 342 338 340 341 337 338 334 331 330 329 328 328 329 328 325 320 319 322 323 322 322 322 322 321 322 320 319 318
322 322 325 325 331 332 333 336 328 334 335 340 338 338 338 340 336 337 336 335 336 336 336 333 331 330 330 330 330 328 325 322 321 319 323 322 322 321 321 321 321 321 319 318
322 324 323 329 331 328 329 328 332 335 336 339 338 342 335 335 336 336 335 331 331 334 335 334 330 331 330 329 330 328 325 323 321 320 320 320 320 320 321 321 322 321 320 319
323 323 327 330 332 332 333 331 333 340 337 335 338 342 335 334 333 332 332 331 331 334 334 334 332 332 331 331 335 327 324 324 322 322 321 322 322 320 321 321 322 319 320 320
324 324 327 332 332 330 334 334 330 332 332 331 331 334 330 336 335 333 334 334 333 332 334 335 334 333 330 332 331 331 325 325 324 323 322 322 322 322 320 320 321 320 319 319
323 323 327 332 332 333 331 331 332 329 335 338 334 335 334 334 336 336 335 334 333 332 332 333 332 333 330 333 335 332 328 326 325 324 323 322 322 322 321 321 320 320 320 320
323 324 325 332 331 332 333 334 335 330 331 336 340 333 327 334 332 334 334 332 332 332 334 333 333 332 331 332 331 331 329 328 327 325 324 323 322 322 322 322 321 321 321 321
325 323 328 331 328 329 331 332 330 331 334 335 333 334 334 333 332 333 334 334 334 335 334 334 334 334 332 332 331 331 331 329 328 326 325 323 322 322 322 322 321 322 321 321
330 329 331 332 329 328 333 333 333 329 329 336 333 332 335 335 332 332 333 331 332 334 334 333 333 333 334 333 332 332 332 330 328 326 325 324 322 322 322 322 321 321 321 322
330 328 326 328 329 328 332 332 333 330 332 332 333 331 331 338 335 333 332 328 327 328 330 331 331 332 333 332 332 333 332 330 327 325 324 323 323 322 322 322 321 321 322 322
324 326 331 330 331 332 334 332 332 334 332 334 333 333 336 337 335 333 332 329 331 330 330 331 331 331 332 332 332 332 331 329 325 324 323 323 323 322 322 321 321 321 322 322
327 326 334 335 336 336 335 332 333 334 334 335 338 339 336 336 334 335 333 332 331 330 327 328 329 332 332 333 332 331 330 327 324 323 321 321 322 321 321 321 321 322 322 322
334 333 334 333 335 331 328 334 337 338 338 336 339 336 338 338 336 334 332 330 331 329 329 331 328 330 332 333 333 331 328 324 325 323 323 324 323 322 321 321 321 320 321 320
340 338 334 337 332 334 327 334 338 338 338 337 337 338 337 335 334 331 330 330 329 329 332 329 328 329 331 331 330 327 326 326 325 324 324 324 323 323 322 320 320 321 323 325
327 332 334 336 332 332 334 334 333 335 336 341 335 337 334 333 333 332 331 329 328 331 332 331 330 331 331 330 328 327 326 325 324 323 322 321 321 323 324 326 325 325 323 321
330 327 330 335 337 339 332 337 335 332 336 340 335 338 337 336 337 336 331 329 331 333 331 331 331 330 330 328 327 325 325 327 326 327 329 328 327 326 321 317 317 315 315 316
336 332 335 334 335 335 334 337 334 338 337 340 336 338 340 338 336 333 332 329 332 332 331 330 329 328 327 324 327 329 330 329 327 322 318 316 314 314 315 314 313 313 315 317
335 337 339 335 337 338 337 336 336 332 337 337 336 335 336 336 336 334 332 329 331 331 330 328 326 323 323 324 325 327 327 321 318 316 313 312 313 314 313 312 311 314 315 312
333 333 334 334 334 330 335 336 335 335 337 337 333 332 332 331 333 332 329 329 331 331 328 326 324 326 325 324 322 321 319 316 314 311 311 312 312 310 311 311 313 312 311 311
333 334 337 335 333 335 335 337 334 334 336 331 330 331 330 333 332 333 327 326 328 327 325 324 326 322 318 315 314 317 315 314 309 310 311 311 310 310 311 312 313 312 311 311
333 332 334 334 334 333 333 332 334 332 331 331 329 333 335 334 333 330 328 327 326 325 327 326 322 317 315 312 308 307 314 313 309 310 310 310 310 311 311 312 311 309 308 308
332 333 336 333 331 335 335 330 330 332 333 332 332 333 333 332 331 329 328 328 328 328 326 321 317 315 313 311 306 309 312 312 310 310 310 311 311 310 310 310 309 309 309 309
Wind_Speed
2 3 4 9 10 7 4 2 5 2 7 7 10 11 7 17 16 13 12 12 12 15 14 23 27 24 20 17 15 13 14 15 11 9 8 12 10 14 11 8 3 2 2 4
7 4 7 13 6 5 4 2 5 5 3 2 1 3 7 15 21 14 9 10 14 9 8 17 23 27 27 23 19 15 14 16 13 12 10 8 7 7 13 10 8 6 4 3
4 9 8 7 4 3 3 6 5 4 2 3 1 4 6 2 3 7 6 8 12 14 15 14 23 31 30 27 22 17 14 16 13 11 9 9 6 5 8 11 10 10 8 4
4 2 5 11 7 6 4 8 4 4 3 1 3 4 6 3 6 8 9 14 13 17 17 16 24 26 31 30 23 21 17 16 16 14 11 11 8 7 10 9 8 9 12 7
8 4 5 6 5 4 2 8 4 3 3 2 4 3 7 1 4 7 12 14 11 15 18 19 26 31 28 29 26 25 21 18 15 15 13 11 9 7 7 5 6 6 12 9
3 5 2 5 4 0 8 6 6 4 3 4 3 3 5 3 4 5 5 6 9 14 18 17 25 24 27 32 27 28 25 21 17 16 14 12 10 9 9 6 3 6 11 11
6 6 6 2 4 7 7 5 3 5 5 5 2 1 8 6 8 8 7 11 14 9 11 13 15 21 20 26 24 30 28 24 18 15 14 13 10 8 7 8 10 9 12 13
2 8 2 2 3 5 2 4 5 4 2 5 3 3 5 4 7 5 6 7 7 3 7 8 10 21 27 21 10 28 28 24 19 15 14 13 11 9 9 8 8 11 11 11
4 6 4 3 4 2 3 2 5 5 2 3 3 6 9 2 5 8 6 7 8 8 8 8 13 22 30 37 27 28 21 22 18 15 12 15 15 12 9 10 11 10 11 12
6 4 4 4 2 6 2 3 3 3 0 3 5 4 5 4 2 1 4 7 10 9 11 3 10 21 29 38 28 24 23 22 19 19 16 17 18 14 12 12 14 14 13 14
4 4 7 1 4 7 2 2 6 4 4 4 2 6 5 5 2 6 5 8 8 9 8 5 5 13 23 22 21 22 12 17 19 22 20 21 20 19 16 18 18 18 17 18
3 5 3 6 6 4 2 4 5 5 4 1 3 6 3 4 4 6 3 6 6 7 7 5 2 8 13 20 17 18 16 16 19 23 24 23 23 21 19 21 20 17 20 21
5 2 3 8 7 5 1 3 4 5 3 5 5 6 3 3 4 3 3 8 6 6 8 6 8 2 7 9 13 17 19 16 19 24 23 23 24 23 22 23 22 21 23 24
8 3 5 6 5 2 4 4 4 6 3 4 5 7 4 2 4 3 3 5 8 7 8 8 7 11 6 11 13 17 18 16 18 19 21 23 24 22 21 22 25 25 24 26
4 2 3 5 4 2 4 4 3 6 3 4 5 3 5 4 4 5 3 5 7 7 7 7 8 9 9 10 10 13 15 16 13 13 15 18 19 19 21 24 25 26 26 26
4 2 0 3 3 5 3 7 6 3 1 3 2 2 7 3 3 5 6 7 8 9 10 6 7 9 12 16 8 10 12 11 8 11 11 9 11 13 16 20 24 26 28 29
2 5 3 4 4 5 5 2 2 3 3 2 2 4 3 1 1 3 5 4 7 9 9 9 7 11 11 11 12 11 10 9 8 12 11 11 12 14 18 20 21 23 24 24
5 3 2 2 3 2 5 1 1 6 5 10 4 4 3 1 1 2 6 4 6 7 7 6 3 6 7 6 7 9 9 8 10 13 14 15 17 19 21 20 17 16 17 17
3 5 2 3 3 4 1 3 1 2 1 6 5 3 4 2 2 5 5 6 5 5 4 2 6 10 10 9 8 7 5 4 6 10 12 11 9 11 12 13 13 13 14 15
5 6 4 2 2 4 5 2 2 2 2 4 3 7 5 5 1 5 4 3 3 8 9 12 14 16 15 11 11 10 8 7 9 9 9 8 10 11 10 11 12 13 13 13
4 4 3 1 2 6 3 3 1 2 6 3 4 7 9 5 8 6 6 3 9 14 13 15 17 17 14 13 15 15 11 12 10 11 12 13 12 10 10 11 13 13 13 14
2 3 1 2 1 6 2 4 4 6 3 5 7 7 7 13 7 7 12 8 14 12 14 17 19 17 13 10 10 12 14 11 9 11 11 12 12 12 13 12 13 12 13 17
2 3 3 6 5 3 3 5 5 6 7 9 7 8 10 11 6 6 6 7 10 12 12 17 22 21 17 14 11 13 10 8 9 11 12 13 14 15 13 13 13 16 16 18
3 2 2 2 4 5 7 6 7 6 9 5 6 10 4 6 7 5 7 8 10 13 19 22 22 20 17 12 12 12 9 9 10 13 13 14 14 12 13 13 15 16 14 14
4 3 4 5 6 5 10 11 13 8 5 10 11 8 8 6 3 2 6 8 13 18 21 21 20 18 13 10 12 10 9 8 10 13 13 13 13 12 14 16 16 18 19 19
5 6 5 5 6 5 7 3 3 5 6 5 7 7 1 7 6 5 7 15 18 20 22 20 17 15 11 10 11 9 8 7 8 11 10 10 10 11 12 14 16 15 15 15
Wind_Direction
65 87 281 236 200 221 169 160 263 236 214 161 220 242 220 200 212 206 200 205 209 215 208 198 205 203 204 206 207 214 209 204 220 219 200 207 213 211 216 219 249 286 8 17
15 299 272 293 171 158 161 197 254 310 40 112 251 310 311 197 212 207 217 216 222 212 183 194 201 206 205 207 210 214 217 211 218 223 218 202 211 214 229 226 232 235 244 322
156 258 329 26 25 126 210 185 227 179 88 56 340 312 330 332 213 201 215 221 214 206 203 189 199 204 208 209 207 216 225 219 219 218 226 216 244 236 210 223 241 242 242 248
224 360 354 310 304 141 239 198 161 148 109 247 32 287 289 321 300 247 226 228 217 214 206 198 199 197 205 210 207 217 221 217 217 219 225 231 240 204 214 236 258 257 233 239
255 350 311 316 266 159 272 69 56 91 120 79 357 55 274 55 274 246 253 259 234 221 210 203 202 201 194 206 211 215 217 216 208 210 221 220 209 198 198 233 277 260 213 228
265 257 234 218 339 265 153 76 54 47 59 26 282 106 286 265 238 301 263 293 262 220 218 210 203 193 185 205 212 217 214 215 208 209 215 221 224 225 235 240 250 238 222 231
349 294 284 187 10 19 51 66 5 7 1 226 28 44 242 259 242 234 328 318 315 228 218 199 183 180 176 197 216 223 216 215 208 207 210 220 226 222 226 235 272 250 233 244
103 330 341 358 178 156 71 128 138 248 252 272 6 248 269 241 335 44 42 286 317 286 224 212 190 161 165 168 247 258 228 218 214 209 214 220 229 234 244 260 249 268 257 263
167 260 309 20 57 25 170 73 164 108 16 38 261 289 315 8 28 31 321 352 336 310 243 217 185 155 152 172 206 221 229 230 228 234 233 235 235 238 250 249 255 265 267 278
210 298 233 203 36 55 129 122 41 21 351 305 294 289 241 303 189 15 3 325 309 324 296 248 152 163 163 187 204 219 220 226 229 238 239 241 241 243 248 253 255 261 272 276
133 122 282 133 182 205 344 36 56 108 125 171 275 277 212 272 219 199 255 291 303 299 290 286 161 131 170 181 197 221 226 231 235 240 242 243 244 245 250 256 262 265 273 276
169 142 224 236 301 221 160 157 135 123 240 222 153 276 18 99 121 175 233 291 317 289 300 284 66 130 162 176 196 216 237 247 244 242 247 248 248 249 257 259 268 277 276 278
180 37 38 350 351 356 355 207 129 104 88 194 149 263 135 100 112 301 291 284 305 300 305 319 316 331 197 195 199 222 239 249 249 243 255 252 249 250 258 263 274 280 280 282
92 99 148 192 212 214 304 283 140 132 123 187 229 289 306 174 246 198 253 274 282 288 284 290 301 303 255 211 221 235 240 246 247 252 264 257 253 257 264 274 276 279 282 284
96 117 195 227 250 239 245 10 171 191 168 188 257 230 283 184 255 291 264 288 299 291 244 242 250 253 225 198 211 229 231 229 233 263 270 258 263 270 276 277 281 283 285 285
5 193 99 317 305 317 317 30 333 40 148 273 188 213 223 117 97 310 294 311 317 320 309 295 253 213 209 211 219 227 213 204 226 268 263 282 296 284 280 283 286 286 286 286
101 138 103 266 345 342 10 323 28 350 6 282 192 256 111 227 258 289 293 280 294 298 308 322 330 212 210 215 223 205 181 181 247 254 269 282 286 285 289 296 299 302 305 308
133 100 108 226 18 25 246 15 190 125 32 1 357 39 77 216 242 285 296 283 289 285 304 305 34 121 165 182 171 160 178 221 247 264 276 292 302 302 310 317 326 334 336 334
138 128 118 142 185 275 20 307 31 190 302 339 342 264 269 106 83 295 193 191 231 231 242 247 106 108 114 132 141 152 184 259 286 312 327 341 346 349 342 341 351 1 354 350
73 68 112 117 152 204 238 317 308 110 281 314 325 51 5 351 2 269 356 352 167 179 159 142 125 116 116 115 123 108 90 82 60 51 44 33 33 40 35 19 22 30 30 31
3 12 112 116 201 285 269 327 227 91 242 236 193 152 123 229 211 249 315 295 205 174 154 137 119 107 106 119 112 90 75 57 67 74 72 62 50 37 36 52 58 42 49 62
131 112 131 114 84 283 82 297 193 209 213 211 217 200 191 223 211 246 261 196 194 166 157 128 108 89 88 108 109 85 75 77 75 76 58 52 53 57 72 61 53 51 74 70
357 171 197 176 224 268 273 253 273 189 188 216 225 255 238 248 178 219 166 157 178 167 123 127 114 99 88 86 87 87 80 79 79 61 65 58 77 68 57 55 64 82 76 69
319 156 164 31 245 250 265 269 260 228 233 339 306 300 334 316 331 325 143 138 141 139 124 129 118 104 93 89 81 84 87 91 72 76 67 81 65 56 56 71 91 80 69 55
205 129 170 259 276 309 260 240 245 253 301 300 296 288 300 257 356 61 111 116 125 124 128 131 121 111 102 90 73 75 90 97 76 68 82 68 59 53 88 89 93 85 72 60
191 191 166 233 223 195 244 349 331 209 242 282 283 319 247 125 100 87 110 118 128 126 135 128 120 113 104 74 57 65 84 93 75 68 82 75 63 80 90 110 102 84 68 56